Location: Nashville
(36.1660°N, 86.7840°W)
Time: 03:29:03
(UTC-06:00)

A-11 Canister half - Visible Passes

Search period start: 28 January 2022 00:00
Search period end: 07 February 2022 00:00
Orbit: 1516 x 1684 km, 47.2° (Epoch: 27 January)

Date Brightness Start Highest point End Pass type
(mag) Time Alt. Az. Time Alt. Az. Time Alt. Az.
28 Jan 9.6 18:06:30 10° WNW 18:15:21 42° N 18:22:14 17° ENE visible
28 Jan 9.3 20:12:45 10° NW 20:20:26 51° N 20:20:26 51° N visible
28 Jan 11.1 22:17:52 10° WNW 22:18:38 13° WNW 22:18:38 13° WNW visible
29 Jan 9.6 17:43:27 10° WNW 17:52:20 43° N 18:00:41 11° ENE visible
29 Jan 9.1 19:49:48 10° WNW 19:58:53 53° NNE 19:58:53 53° NNE visible
29 Jan 10.8 21:54:56 10° WNW 21:57:06 19° WNW 21:57:06 19° WNW visible
30 Jan 9.6 17:20:23 10° WNW 17:29:19 43° N 17:38:05 10° ENE visible
30 Jan 9.1 19:26:50 10° WNW 19:35:55 52° NNE 19:37:22 48° NE visible
30 Jan 10.4 21:32:00 10° WNW 21:35:35 27° WNW 21:35:35 27° WNW visible
31 Jan 9.2 19:03:52 10° WNW 19:12:56 50° NNE 19:15:53 39° ENE visible
31 Jan 9.9 21:09:04 10° WNW 21:14:06 37° WNW 21:14:06 37° WNW visible
01 Feb 9.3 18:40:54 10° WNW 18:49:56 49° NNE 18:54:27 29° ENE visible
01 Feb 9.5 20:46:08 10° WNW 20:52:40 51° WNW 20:52:40 51° WNW visible
02 Feb 9.3 18:17:55 10° WNW 18:26:57 48° NNE 18:33:03 21° ENE visible
02 Feb 9.0 20:23:12 10° WNW 20:31:17 71° WNW 20:31:17 71° WNW visible
02 Feb 11.2 22:29:28 10° WNW 22:29:30 10° WNW 22:29:30 10° WNW visible
03 Feb 9.4 17:54:56 10° WNW 18:03:57 47° NNE 18:11:44 14° E visible
03 Feb 8.7 20:00:17 10° WNW 20:09:39 89° SSW 20:09:58 85° SE visible
03 Feb 10.9 22:06:21 10° WNW 22:08:11 16° W 22:08:11 16° W visible
04 Feb 9.4 17:31:56 10° WNW 17:40:57 46° NNE 17:49:46 10° E visible
04 Feb 8.8 19:37:20 10° WNW 19:46:44 87° NE 19:48:43 61° ESE visible
04 Feb 10.6 21:43:15 10° WNW 21:46:57 22° W 21:46:57 22° W visible
05 Feb 8.8 19:14:24 10° NW 19:23:49 84° NNE 19:27:33 42° ESE visible
05 Feb 10.3 21:20:11 10° WNW 21:25:48 28° WSW 21:25:48 28° WSW visible
06 Feb 8.9 18:51:28 10° NW 19:00:53 80° NNE 19:06:30 28° ESE visible
06 Feb 10.0 20:57:08 10° WNW 21:04:45 34° SW 21:04:45 34° SW visible
